This is the latest recevied weather packets stored in our database for station/object KC2BRB-1. If no packets are shown the sender has not sent any weather packets the latest 10 day(s).
| Time | Temp. | Humidity | Pressure | Rain* | Wind** | Luminosity | Snow |
|---|---|---|---|---|---|---|---|
| 1777823547 | 22.22° C | 71% | 1016.6 hPa | 0 mm | - | - | - |
| 1777823248 | 22.22° C | 71% | 1016.6 hPa | 0 mm | - | - | - |
| 1777823168 | 22.22° C | 71% | 1016.7 hPa | 0 mm | - | - | - |
| 1777822947 | 22.22° C | 71% | 1016.7 hPa | 0 mm | - | - | - |
| 1777822908 | 22.22° C | 71% | 1016.7 hPa | 0 mm | - | - | - |
| 1777822647 | 22.22° C | 71% | 1016.7 hPa | 0 mm | - | - | - |
| 1777822566 | 21.67° C | 74% | 1016.4 hPa | 0 mm | - | - | - |
| 1777822347 | 21.67° C | 74% | 1016.4 hPa | 0 mm | - | - | - |
| 1777822297 | 21.67° C | 74% | 1016.4 hPa | 0 mm | - | - | - |
| 1777822048 | 21.67° C | 74% | 1016.4 hPa | 0 mm | - | - | - |
| 1777821747 | 21.67° C | 74% | 1016.4 hPa | 0 mm | - | - | - |
| 1777821664 | 21.67° C | 74% | 1016.4 hPa | 0 mm | - | - | - |
| 1777821454 | 21.11° C | 76% | 1016.3 hPa | 0 mm | - | - | - |
| 1777821448 | 21.67° C | 74% | 1016.4 hPa | 0 mm | - | - | - |
| 1777821148 | 21.11° C | 76% | 1016.3 hPa | 0 mm | - | - | - |
| 1777821105 | 21.11° C | 76% | 1016.3 hPa | 0 mm | - | - | - |
| 1777820848 | 21.11° C | 76% | 1016.3 hPa | 0 mm | - | - | - |
| 1777820548 | 20.56° C | 76% | 1016.1 hPa | 0 mm | - | - | - |
| 1777820468 | 20.56° C | 76% | 1016.1 hPa | 0 mm | - | - | - |
| 1777820285 | 21.11° C | 77% | 1016.1 hPa | 0 mm | - | - | - |
| 1777820247 | 20.56° C | 76% | 1016.1 hPa | 0 mm | - | - | - |
| 1777819948 | 21.11° C | 77% | 1016.1 hPa | 0 mm | - | - | - |
| 1777819348 | 20.56° C | 79% | 1015.8 hPa | 0 mm | - | - | - |
| 1777819300 | 20.56° C | 79% | 1015.8 hPa | 0 mm | - | - | - |
| 1777819048 | 20.56° C | 79% | 1015.8 hPa | 0 mm | - | - | - |
* Rain latest hour (hover to see other rain measurements)
** Current wind speed in m/s (hover to see current wind gust speed)